Regional Weather Roundup
Issued by NWS

Home | Current Version | Previous Version | Text Only | Print | Product List | Glossary Off
Versions: 1 2 3 4 5 6 7 8 9 10 11 12 13 14 15 16 17 18 19 20 21 22 23 24 25 26 27 28 29 30 31 32 33 34 35 36 37 38 39 40 41 42 43 44 45 46 47 48 49 50

000
ASUS43 KLMK 290210
RWRKY
KENTUCKY REGIONAL WEATHER ROUNDUP
NATIONAL WEATHER SERVICE LOUISVILLE KY
1000 PM EDT THU MAY 28 2015

NOTE "FAIR" INDICATES FEW OR NO CLOUDS BELOW 12,000 FEET
WITH NO SIGNIFICANT WEATHER AND/OR OBSTRUCTIONS TO VISIBILITY.

KYZ001>023-026-027-061>063-070>075-290300-
WESTERN AND SOUTH CENTRAL KENTUCKY

CITY           SKY/WX    TMP DP  RH WIND       PRES   REMARKS
PADUCAH        CLOUDY    75  68  78 E3        30.08R
HENDERSON      CLEAR     73  66  78 CALM      30.08R
OWENSBORO      CLEAR     77  68  73 SE8       30.11R
HOPKINSVILLE   PTCLDY    76  66  71 E3        30.11R
BOWLING GREEN  CLEAR     73  65  75 E5        30.14R
GLASGOW        PTCLDY    72  64  74 E3        30.16R
$$

KYZ024-025-028>034-038-045-046-053-290300-
NORTH CENTRAL KENTUCKY

CITY           SKY/WX    TMP DP  RH WIND       PRES   REMARKS
LOUISVILLE/SDF PTCLDY    74  68  81 E7        30.15R
LOUISVILLE/LOU PTCLDY    73  69  87 SE3       30.16R
FORT KNOX      PTCLDY    70  63  78 SE6       30.14R
$$

KYZ035>037-039>044-047>052-055>060-089>105-290300-
NORTHEAST KENTUCKY

CITY           SKY/WX    TMP DP  RH WIND       PRES   REMARKS
LEXINGTON      CLOUDY    72  65  78 CALM      30.19R
COVINGTON      PTCLDY    71  64  78 S5        30.17R
FRANKFORT      CLOUDY    73  65  75 S5        30.17R
$$

KYZ054-064>069-076>088-106>120-290300-
SOUTHEAST KENTUCKY

CITY           SKY/WX    TMP DP  RH WIND       PRES   REMARKS
JACKSON        MOCLDY    73  67  81 CALM      30.22R
LONDON         CLOUDY    72  65  78 CALM      30.20R
SOMERSET       MOCLDY    64  64 100 CALM      30.20S
MIDDLESBORO    CLOUDY    71  68  90 CALM      30.22R
MONTICELLO     PTCLDY    67  67 100 CALM      30.21S
$$



USA.gov is the U.S. government's official web portal to all federal, state and local government web resources and services.